Location: Huberhof
(49.2050°N, 7.4980°E)
Time: 04:23:59
(UTC+00:00)

Meteor 2-15 - Pass Details

Date: 29 October 2020
Orbit: 935 x 956 km, 82.5° (Epoch: 25 November)

Event Time Altitude Azimuth Distance (km) Brightness Sun altitude
Rises 17:45:37 0° 181° (S) 3,621 7.5 -15.6°
Reaches altitude 10° 17:48:06 10° 179° (S) 2,678 6.8 -16.0°
Maximum altitude 17:54:12 73° 96° (E) 1,000 4.4 -17.0°
Drops below altitude 10° 18:00:19 10° 13° (NNE) 2,686 6.7 -18.0°
Sets 18:02:50 0° 12° (NNE) 3,632 7.4 -18.4°
